Location: Newcastle Observatory
(43.9158°N, 78.5831°W)
Time: 20:24:49
(UTC-04:00)

Amateur Radio Satellites - All Passes

Search period start: 31 October 2014 19:54
Search period end: 01 November 2014 19:54
Location: Newcastle Observatory, 43.9158°N, 78.5831°W

Satellite Date Start Highest point End Downlink Frequencies (MHz)
Time Altitude Azimuth
STRAND 1 31 Oct 19:59:34 20:04:41 60° 101° (E) 20:09:44 ?
HO-68 31 Oct 20:05:17 20:11:27 33° 60° (ENE) 20:17:40 435.675 MHz FM
AO-40 31 Oct 20:18:08 22:20:23 18° 115° (ESE) 23:26:37 Beacon 2401.320
KITSAT 1 31 Oct 20:29:39 20:37:47 88° 239° (WSW) 20:45:52 435.175 FM
SO-50 31 Oct 20:43:40 20:48:26 58° 240° (WSW) 20:53:14 436.795 FM
UKube-1 31 Oct 20:50:36 20:53:18 16° 62° (ENE) 20:56:00 145.840 MHz, 145.915 MHz
Oscar 10/S400 31 Oct 20:56:03 21:33:01 47° 200° (SSW) 04:59:45 145.825 - 145.975 CW/USB, Beacon 145.810 USB
Oscar 11 31 Oct 21:24:02 21:27:49 31° 68° (ENE) 21:31:36 145.825 FM, Beacon 2401.500 USB
UOSAT-12 31 Oct 21:26:02 21:30:35 45° 49° (NE) 21:35:04 437.025 FM, 437.400 FM
STRAND 1 31 Oct 21:39:47 21:43:24 20° 299° (WNW) 21:47:01 ?
FUNcube-1 31 Oct 21:41:57 21:45:25 22° 66° (ENE) 21:48:49 145.950 - 145.970 MHz USB
MaSat-1 31 Oct 21:50:08 21:52:59 20° 109° (ESE) 21:55:38 437.345 MHz
RS-15 31 Oct 21:50:30 22:01:26 77° 120° (ESE) 22:12:21 29.354 - 29.394 USB, Beacon 29.352 USB
HO-68 31 Oct 21:51:51 21:58:50 55° 259° (WSW) 22:05:53 435.675 MHz FM
UKube-1 31 Oct 22:24:47 22:29:03 55° 259° (W) 22:33:22 145.840 MHz, 145.915 MHz
KITSAT 1 31 Oct 22:26:48 22:32:04 19° 258° (WSW) 22:37:19 435.175 FM
ZACube-1 31 Oct 22:34:09 22:38:40 75° 75° (ENE) 22:43:07 437.345 MHz
Oscar 11 31 Oct 23:00:23 23:03:59 26° 265° (W) 23:07:36 145.825 FM, Beacon 2401.500 USB
UOSAT-12 31 Oct 23:06:40 23:10:30 25° 247° (WSW) 23:14:16 437.025 FM, 437.400 FM
FUNcube-1 31 Oct 23:17:19 23:21:34 39° 262° (W) 23:25:45 145.950 - 145.970 MHz USB
MaSat-1 31 Oct 23:24:49 23:28:13 31° 302° (WNW) 23:31:20 437.345 MHz
RS-15 01 Nov 00:04:48 00:14:50 40° 326° (NW) 00:25:00 29.354 - 29.394 USB, Beacon 29.352 USB
ZACube-1 01 Nov 00:14:06 00:15:32 11° 271° (W) 00:16:58 437.345 MHz
Oscar 16 01 Nov 01:41:01 01:44:17 17° 91° (E) 01:47:33 437.025 USB, Beacon 2401.1428
Sapphire 01 Nov 01:54:34 01:58:46 24° 107° (ESE) 02:02:59 437.095 MHz 1200 baud AX-25 AFSK
AO-Echo 01 Nov 02:11:49 02:15:28 19° 90° (E) 02:19:04 ?
JAS-1B 01 Nov 02:13:58 02:20:44 41° 98° (E) 02:28:39 435.800 - 435.900 CW/SSB
Uribyol 2 01 Nov 02:15:14 02:18:06 15° 89° (E) 02:20:58 436.500 FM
PCSat 01 Nov 02:15:14 02:20:11 38° 112° (ESE) 02:25:10 145.825 MHz
RS-15 01 Nov 02:22:46 02:31:19 25° 0° (N) 02:40:02 29.354 - 29.394 USB, Beacon 29.352 USB
ITAMSAT 1 01 Nov 02:23:00 02:26:17 17° 90° (E) 02:29:33 435.822 SSB
Oscar 19 01 Nov 02:31:51 02:36:49 49° 100° (E) 02:41:45 437.125 CW, 437.150 USB
AO-27 01 Nov 03:09:32 03:14:33 45° 99° (E) 03:19:31 436.795 MHz FM
Oscar 16 01 Nov 03:19:00 03:24:04 63° 288° (WNW) 03:29:07 437.025 USB, Beacon 2401.1428
Gurwin Techsat 1B 01 Nov 03:28:11 03:33:05 36° 97° (E) 03:37:57 435.225 FM
TMSAT-1 01 Nov 03:34:18 03:39:00 31° 95° (E) 03:43:39 436.925 FM
Sapphire 01 Nov 03:36:31 03:41:48 54° 306° (NW) 03:47:09 437.095 MHz 1200 baud AX-25 AFSK
OPAL 01 Nov 03:45:57 03:46:28 10° 52° (NE) 03:46:59 ?
AO-Echo 01 Nov 03:49:22 03:54:38 62° 288° (WNW) 03:59:49 ?
Uribyol 2 01 Nov 03:52:56 03:58:08 72° 287° (WNW) 04:03:16 436.500 FM
PCSat 01 Nov 03:58:39 04:03:37 36° 311° (NW) 04:08:37 145.825 MHz
AO-7 01 Nov 03:59:10 04:04:04 17° 88° (E) 04:08:57 29.400 - 29.500 MHz
ITAMSAT 1 01 Nov 04:01:04 04:06:15 65° 288° (WNW) 04:11:23 435.822 SSB
JAS-1B 01 Nov 04:04:44 04:11:19 45° 293° (WNW) 04:19:05 435.800 - 435.900 CW/SSB
Oscar 19 01 Nov 04:11:53 04:15:51 23° 297° (WNW) 04:19:48 437.125 CW, 437.150 USB
RS-15 01 Nov 04:37:38 04:47:51 40° 34° (NE) 04:58:23 29.354 - 29.394 USB, Beacon 29.352 USB
AO-27 01 Nov 04:49:34 04:53:49 26° 297° (WNW) 04:58:02 436.795 MHz FM
Gurwin Techsat 1B 01 Nov 05:08:18 05:12:57 32° 294° (WNW) 05:17:35 435.225 FM
TMSAT-1 01 Nov 05:14:07 05:18:56 36° 293° (WNW) 05:23:44 436.925 FM
OPAL 01 Nov 05:19:22 05:24:26 67° 70° (ENE) 05:29:27 ?
Saudisat 1A 01 Nov 05:19:46 05:22:56 20° 112° (ESE) 05:26:07 436.775 MHz
Sapphire 01 Nov 05:24:02 05:26:30 13° 328° (NNW) 05:28:59 437.095 MHz 1200 baud AX-25 AFSK
Uribyol 2 01 Nov 05:35:23 05:36:40 11° 305° (NW) 05:37:57 436.500 FM
STRAND 1 01 Nov 05:40:46 05:43:29 15° 58° (ENE) 05:46:13 ?
Uosat F 01 Nov 05:41:18 05:46:21 66° 102° (ESE) 05:51:21 435.120 FM
JAS-2 01 Nov 05:45:28 05:52:21 32° 92° (E) 05:59:00 435.800 - 435.900 CW/SSB, 435.910 FM
AO-7 01 Nov 05:49:42 05:58:05 81° 107° (ESE) 06:06:26 29.400 - 29.500 MHz
Hamsat 01 Nov 06:25:50 06:29:31 28° 95° (E) 06:33:11 145.90 MHz
RS-15 01 Nov 06:50:11 07:01:21 79° 240° (WSW) 07:13:00 29.354 - 29.394 USB, Beacon 29.352 USB
Saudisat 1A 01 Nov 06:57:54 07:02:09 49° 310° (NW) 07:06:28 436.775 MHz
OPAL 01 Nov 07:00:42 07:03:45 16° 267° (W) 07:06:48 ?
STRAND 1 01 Nov 07:16:50 07:21:58 84° 256° (WSW) 07:27:10 ?
Uosat F 01 Nov 07:21:20 07:24:36 18° 300° (WNW) 07:27:52 435.120 FM
JAS-2 01 Nov 07:29:59 07:37:42 60° 291° (WNW) 07:45:10 435.800 - 435.900 CW/SSB, 435.910 FM
MaSat-1 01 Nov 07:32:17 07:34:40 37° 59° (ENE) 07:36:54 437.345 MHz
AO-7 01 Nov 07:43:30 07:50:02 27° 308° (NW) 07:56:35 29.400 - 29.500 MHz
Hamsat 01 Nov 08:01:50 08:05:23 27° 292° (WNW) 08:08:56 145.90 MHz
SO-67 01 Nov 08:19:13 08:22:40 73° 101° (ESE) 08:26:06 435.3500 MHz FM
Saudisat 1A 01 Nov 08:41:37 08:42:47 11° 331° (NNW) 08:43:57 436.775 MHz
STRAND 1 01 Nov 09:01:19 09:01:56 10° 273° (W) 09:02:32 ?
RS-15 01 Nov 09:04:42 09:11:55 20° 261° (W) 09:19:21 29.354 - 29.394 USB, Beacon 29.352 USB
JAS-2 01 Nov 09:17:15 09:21:09 15° 311° (NW) 09:25:02 435.800 - 435.900 CW/SSB, 435.910 FM
HO-68 01 Nov 09:18:21 09:24:21 28° 94° (E) 09:30:18 435.675 MHz FM
PCSat 01 Nov 09:20:12 09:21:39 11° 29° (NNE) 09:23:06 145.825 MHz
ISS 01 Nov 09:52:03 09:54:44 23° 136° (SE) 09:57:25 145.800 FM
UKube-1 01 Nov 10:12:04 10:15:29 22° 94° (E) 10:18:53 145.840 MHz, 145.915 MHz
ZACube-1 01 Nov 10:24:06 10:25:45 12° 89° (E) 10:27:23 437.345 MHz
Sapphire 01 Nov 10:40:01 10:44:45 29° 46° (NE) 10:49:28 437.095 MHz 1200 baud AX-25 AFSK
Oscar 11 01 Nov 10:45:40 10:49:53 50° 100° (E) 10:54:04 145.825 FM, Beacon 2401.500 USB
KITSAT 1 01 Nov 10:59:01 11:06:48 55° 114° (ESE) 11:14:38 435.175 FM
SO-50 01 Nov 11:00:06 11:04:07 33° 115° (ESE) 11:08:14 436.795 FM
PCSat 01 Nov 11:01:24 11:06:35 43° 51° (NE) 11:11:43 145.825 MHz
FUNcube-1 01 Nov 11:04:59 11:08:49 33° 97° (E) 11:12:34 145.950 - 145.970 MHz USB
HO-68 01 Nov 11:05:24 11:12:28 61° 292° (WNW) 11:19:30 435.675 MHz FM
ISS 01 Nov 11:27:57 11:31:13 53° 333° (NNW) 11:34:30 145.800 FM
UKube-1 01 Nov 11:47:46 11:51:46 36° 291° (WNW) 11:55:45 145.840 MHz, 145.915 MHz
ZACube-1 01 Nov 11:58:26 12:02:35 60° 286° (WNW) 12:06:40 437.345 MHz
Oscar 19 01 Nov 12:14:50 12:16:41 12° 56° (ENE) 12:18:32 437.125 CW, 437.150 USB
Oscar 11 01 Nov 12:22:55 12:25:40 17° 297° (WNW) 12:28:26 145.825 FM, Beacon 2401.500 USB
Sapphire 01 Nov 12:23:11 12:28:25 50° 246° (WSW) 12:33:37 437.095 MHz 1200 baud AX-25 AFSK
SO-50 01 Nov 12:40:29 12:44:38 34° 315° (NW) 12:48:54 436.795 FM
FUNcube-1 01 Nov 12:41:46 12:45:01 22° 294° (WNW) 12:48:13 145.950 - 145.970 MHz USB
PCSat 01 Nov 12:45:07 12:49:50 31° 250° (WSW) 12:54:30 145.825 MHz
AO-27 01 Nov 12:53:39 12:55:33 12° 56° (NE) 12:57:27 436.795 MHz FM
KITSAT 1 01 Nov 12:54:55 13:02:28 42° 316° (NW) 13:10:04 435.175 FM
HO-68 01 Nov 12:55:32 12:58:46 14° 313° (NW) 13:01:59 435.675 MHz FM
Oscar 16 01 Nov 12:59:00 13:03:24 29° 65° (ENE) 13:07:48 437.025 USB, Beacon 2401.1428
JAS-1B 01 Nov 13:03:10 13:08:07 32° 64° (ENE) 13:13:10 435.800 - 435.900 CW/SSB
ISS 01 Nov 13:05:44 13:08:26 22° 353° (N) 13:11:07 145.800 FM
Gurwin Techsat 1B 01 Nov 13:16:37 13:16:51 10° 54° (NE) 13:17:06 435.225 FM
UOSAT-12 01 Nov 13:17:57 13:22:34 72° 122° (ESE) 13:27:17 437.025 FM, 437.400 FM
AO-Echo 01 Nov 13:25:53 13:30:04 27° 64° (ENE) 13:34:22 ?
Uribyol 2 01 Nov 13:33:53 13:38:14 27° 64° (ENE) 13:42:36 436.500 FM
ITAMSAT 1 01 Nov 13:41:56 13:46:26 30° 65° (ENE) 13:50:57 435.822 SSB
Saudisat 1A 01 Nov 13:43:58 13:47:48 28° 44° (NE) 13:51:37 436.775 MHz
Oscar 19 01 Nov 13:50:03 13:55:11 81° 74° (ENE) 14:00:20 437.125 CW, 437.150 USB
AO-27 01 Nov 14:28:58 14:34:11 78° 74° (ENE) 14:39:26 436.795 MHz FM
Oscar 16 01 Nov 14:37:52 14:42:37 37° 263° (W) 14:47:23 437.025 USB, Beacon 2401.1428
ISS 01 Nov 14:42:59 14:45:52 26° 13° (NNE) 14:48:44 145.800 FM
Gurwin Techsat 1B 01 Nov 14:50:33 14:55:48 65° 72° (ENE) 15:01:05 435.225 FM
JAS-1B 01 Nov 14:53:35 14:58:48 36° 263° (W) 15:04:03 435.800 - 435.900 CW/SSB
KITSAT 1 01 Nov 14:55:27 15:00:26 17° 343° (NNW) 15:05:25 435.175 FM
TMSAT-1 01 Nov 14:56:17 15:01:27 55° 71° (ENE) 15:06:38 436.925 FM
AO-7 01 Nov 14:59:22 15:06:12 30° 54° (NE) 15:13:03 29.400 - 29.500 MHz
UOSAT-12 01 Nov 14:59:42 15:03:13 21° 322° (NW) 15:06:46 437.025 FM, 437.400 FM
AO-Echo 01 Nov 15:03:54 15:08:36 41° 263° (W) 15:13:30 ?
Uribyol 2 01 Nov 15:12:35 15:17:30 42° 262° (W) 15:22:28 436.500 FM
Uosat F 01 Nov 15:20:01 15:22:48 15° 58° (ENE) 15:25:35 435.120 FM
ITAMSAT 1 01 Nov 15:20:59 15:25:48 37° 263° (W) 15:30:40 435.822 SSB
Saudisat 1A 01 Nov 15:23:20 15:27:29 40° 242° (WSW) 15:31:36 436.775 MHz
Oscar 19 01 Nov 15:32:54 15:35:09 13° 272° (W) 15:37:24 437.125 CW, 437.150 USB
JAS-2 01 Nov 16:01:12 16:05:13 17° 51° (NE) 16:09:27 435.800 - 435.900 CW/SSB, 435.910 FM
AO-27 01 Nov 16:11:42 16:14:18 14° 271° (W) 16:16:54 436.795 MHz FM
ISS 01 Nov 16:19:31 16:22:52 88° 213° (SSW) 16:26:13 145.800 FM
Gurwin Techsat 1B 01 Nov 16:32:50 16:36:14 17° 270° (W) 16:39:39 435.225 FM
TMSAT-1 01 Nov 16:37:50 16:41:42 20° 268° (W) 16:45:36 436.925 FM
AO-7 01 Nov 16:50:06 16:58:20 71° 254° (WSW) 17:06:39 29.400 - 29.500 MHz
KITSAT 1 01 Nov 16:55:01 16:59:45 16° 14° (NNE) 17:04:28 435.175 FM
Uosat F 01 Nov 16:55:54 17:00:56 79° 256° (WSW) 17:06:01 435.120 FM
Hamsat 01 Nov 17:20:45 17:24:09 25° 67° (ENE) 17:27:33 145.90 MHz
OPAL 01 Nov 17:29:31 17:32:09 14° 92° (E) 17:34:46 ?
JAS-2 01 Nov 17:42:32 17:48:55 77° 73° (ENE) 17:56:12 435.800 - 435.900 CW/SSB, 435.910 FM
SO-50 01 Nov 17:50:56 17:52:44 12° 28° (NNE) 17:54:33 436.795 FM
ISS 01 Nov 17:57:38 17:59:06 12° 229° (SW) 18:00:33 145.800 FM
AO-7 01 Nov 18:48:50 18:52:34 14° 274° (W) 18:56:19 29.400 - 29.500 MHz
KITSAT 1 01 Nov 18:50:32 18:57:56 37° 42° (NE) 19:05:17 435.175 FM
SO-67 01 Nov 18:53:11 18:56:10 28° 71° (ENE) 18:59:09 435.3500 MHz FM
Hamsat 01 Nov 18:56:18 18:59:59 30° 264° (W) 19:03:41 145.90 MHz
OPAL 01 Nov 19:06:36 19:11:32 71° 289° (WNW) 19:16:27 ?
RS-15 01 Nov 19:12:30 19:15:45 12° 94° (E) 19:18:59 29.354 - 29.394 USB, Beacon 29.352 USB
STRAND 1 01 Nov 19:26:29 19:30:58 30° 95° (E) 19:35:25 ?
SO-50 01 Nov 19:29:46 19:34:28 48° 49° (NE) 19:39:11 436.795 FM
JAS-2 01 Nov 19:30:20 19:34:53 20° 274° (W) 19:39:48 435.800 - 435.900 CW/SSB, 435.910 FM
